TimeMST,TemperatureF,Dew PointF,Humidity,Sea Level PressureIn,VisibilityMPH,Wind Direction,Wind SpeedMPH,Gust SpeedMPH,PrecipitationIn,Events,Conditions,WindDirDegrees,DateUTC
12:53 AM,30.0,26.1,85,29.68,10.0,Calm,Calm,-,N/A,,Overcast,0,2013-02-20 07:53:00
1:53 AM,28.9,26.1,89,29.68,10.0,SW,4.6,-,N/A,,Overcast,220,2013-02-20 08:53:00
2:53 AM,30.0,26.1,85,29.66,10.0,East,3.5,-,N/A,,Overcast,80,2013-02-20 09:53:00
3:53 AM,28.9,26.1,89,29.65,10.0,North,3.5,-,N/A,,Overcast,10,2013-02-20 10:53:00
4:53 AM,28.9,24.1,82,29.66,10.0,Calm,Calm,-,N/A,,Scattered Clouds,0,2013-02-20 11:53:00
5:53 AM,28.9,24.1,82,29.69,10.0,Calm,Calm,-,N/A,,Overcast,0,2013-02-20 12:53:00
6:53 AM,28.9,23.0,78,29.70,10.0,NNW,3.5,-,N/A,,Mostly Cloudy,330,2013-02-20 13:53:00
7:53 AM,27.0,23.0,85,29.74,10.0,West,4.6,-,N/A,,Mostly Cloudy,270,2013-02-20 14:53:00
8:53 AM,30.2,24.8,80,29.70,10.0,WSW,6.9,-,N/A,,Mostly Cloudy,240,2013-02-20 15:53:00
9:07 AM,30.2,26.6,86,29.71,7.0,WSW,6.9,-,0.00,Snow,Light Snow,250,2013-02-20 16:07:00
9:53 AM,30.9,28.0,89,29.77,4.0,WSW,8.1,-,0.00,Snow,Light Snow,240,2013-02-20 16:53:00
10:02 AM,30.2,28.4,93,29.72,1.8,WSW,10.4,-,0.00,Snow,Light Snow,240,2013-02-20 17:02:00
10:53 AM,28.0,25.0,88,29.80,1.5,SW,20.7,25.3,0.01,Snow,Light Snow,230,2013-02-20 17:53:00
11:00 AM,28.4,24.8,86,29.73,1.5,SW,20.7,-,0.00,Snow,Light Snow,230,2013-02-20 18:00:00
11:53 AM,28.0,24.1,85,29.81,1.5,WSW,23.0,27.6,0.01,Snow,Light Snow,240,2013-02-20 18:53:00
12:31 PM,26.6,23.0,86,29.74,3.0,WSW,19.6,25.3,0.01,Snow,Light Snow,240,2013-02-20 19:31:00
12:51 PM,26.6,23.0,86,29.74,6.0,SW,21.9,27.6,0.01,Snow,Light Snow,230,2013-02-20 19:51:00
12:53 PM,27.0,23.0,85,29.81,6.0,SW,19.6,27.6,0.01,Snow,Light Snow,230,2013-02-20 19:53:00
1:50 PM,26.6,21.2,80,29.75,2.5,SW,18.4,26.5,0.00,Snow,Light Snow,230,2013-02-20 20:50:00
1:53 PM,27.0,23.0,85,29.82,2.5,WSW,17.3,-,0.00,Snow,Light Snow,240,2013-02-20 20:53:00
2:53 PM,27.0,23.0,85,29.82,5.0,SW,18.4,23.0,0.00,Snow,Light Snow,220,2013-02-20 21:53:00
3:53 PM,28.0,24.1,85,29.83,3.0,SW,12.7,-,0.01,Snow,Light Snow,230,2013-02-20 22:53:00
4:39 PM,28.4,24.8,86,29.76,2.0,SW,16.1,-,0.00,Snow,Light Snow,230,2013-02-20 23:39:00
4:53 PM,28.0,25.0,88,29.83,1.0,SW,15.0,-,0.00,Snow,Light Snow,220,2013-02-20 23:53:00
5:16 PM,28.4,24.8,86,29.76,3.0,SW,13.8,-,0.01,Snow,Light Snow,220,2013-02-21 00:16:00
5:53 PM,28.9,24.1,82,29.83,4.0,SW,12.7,-,0.01,Snow,Light Snow,220,2013-02-21 00:53:00
6:53 PM,28.9,23.0,78,29.84,10.0,SSW,12.7,-,0.00,,Mostly Cloudy,210,2013-02-21 01:53:00
7:53 PM,30.0,21.0,69,29.86,10.0,SW,16.1,-,N/A,,Overcast,220,2013-02-21 02:53:00
8:53 PM,28.9,19.9,69,29.86,10.0,SW,17.3,-,N/A,,Overcast,230,2013-02-21 03:53:00
9:53 PM,28.9,19.0,67,29.88,9.0,SW,13.8,-,0.00,Snow,Light Snow,230,2013-02-21 04:53:00
10:49 PM,28.4,19.4,69,29.83,5.0,WSW,16.1,-,0.00,Snow,Light Snow,240,2013-02-21 05:49:00
10:53 PM,27.0,19.9,75,29.91,3.0,SW,10.4,20.7,0.00,Snow,Light Snow,230,2013-02-21 05:53:00
11:00 PM,26.6,19.4,74,29.83,2.5,SW,13.8,-,0.00,Snow,Light Snow,230,2013-02-21 06:00:00
11:08 PM,26.6,19.4,74,29.83,3.0,SW,15.0,-,0.00,Snow,Light Snow,230,2013-02-21 06:08:00
11:17 PM,26.6,19.4,74,29.84,2.0,WSW,15.0,-,0.00,Snow,Light Snow,240,2013-02-21 06:17:00
11:53 PM,26.1,19.9,78,29.92,2.0,SW,12.7,-,0.01,Snow,Light Snow,230,2013-02-21 06:53:00